Regional Weather Roundup
Issued by NWS

Home | Current Version | Previous Version | Graphics & Text | Print | Product List | Glossary On
Versions: 1 2 3 4 5 6 7 8 9 10 11 12 13 14 15 16 17 18 19 20 21 22 23 24 25 26 27 28
000
ASUS45 KBOU 270910
RWRCO

WEATHER ROUNDUP FOR COLORADO
NATIONAL WEATHER SERVICE DENVER/BOULDER CO
300 AM MDT TUE SEP 27 2016

NOTE: "FAIR" INDICATES FEW OR NO CLOUDS BELOW 12000 FEET WITH NO
SIGNIFICANT WEATHER AND/OR OBSTRUCTIONS TO VISIBILITY.

COZ001>005-013-030-031-271000-
...NORTHWEST COLORADO...

CITY           SKY/WX    TMP DP  RH WIND       PRES   REMARKS
CRAIG          FAIR      35  32  88 CALM      30.36S
HAYDEN         FAIR      43  30  61 E10       30.36S
MEEKER         FAIR      41  36  82 E5        30.37S
MOUNT WERNER   NOT AVBL
STEAMBOAT SPGS FAIR      40  33  77 CALM      30.38F
WALDEN           N/A     30  25  80 SE8       30.46S WCI  23
$$

COZ006>008-011-271000-
...WEST CENTRAL VALLEYS...

CITY           SKY/WX    TMP DP  RH WIND       PRES   REMARKS
GRAND JUNCTION FAIR      51  39  63 E6        30.26S
MONTROSE       FAIR      46  37  71 SE9       30.34S
EAGLE          FAIR      41  30  65 CALM      30.42S
RIFLE          FAIR      46  40  79 SE3       30.33R
DELTA          NOT AVBL
NUCLA          NOT AVBL
$$

COZ017>023-064>068-271000-
...SOUTHWEST COLORADO...

CITY           SKY/WX    TMP DP  RH WIND       PRES   REMARKS
DURANGO        FAIR      41  34  76 NE6       30.39S
CORTEZ         FAIR      41  36  82 SE3       30.34R
PAGOSA SPRINGS FAIR      43  33  67 CALM      30.44F
TELLURIDE      NOT AVBL
WOLF CREEK PAS FAIR      37  28  70 MISG      30.66S
$$

COZ009-010-012-014-032>034-037-058>063-271000-
...CENTRAL COLORADO...

CITY           SKY/WX    TMP DP  RH WIND       PRES   REMARKS
ASPEN          FAIR      39  31  72 S5        30.42S
BUENA VISTA    FAIR      38  25  58 CALM      30.46S
COPPER MTN     FAIR      45  21  39 SW7       30.64F
BERTHOUD PASS  FAIR      34  21  60 NW17      30.66S WCI  23
COTTONWOOD PAS FAIR      48  23  37 CALM      30.54S
GUNNISON       FAIR      34  28  80 SE3       30.46R
KREMMLING      FAIR      34  28  80 CALM      30.45F
LEADVILLE      FAIR      27  20  75 E3        30.53F
MONARCH PASS   FAIR      39  21  48 SW12      30.74F
SALIDA         FAIR      43  27  54 W7        30.51F
SUNLIGHT       FAIR      46  30  53 CALM      30.61S
WILKERSON PASS FAIR      41  21  45 W6        30.62F
$$

COZ069>075-271000-
...SAN LUIS VALLEY/SANGRE DE CRISTO MOUNTAINS...

CITY           SKY/WX    TMP DP  RH WIND       PRES   REMARKS
ALAMOSA        FAIR      37  29  72 CALM      30.42S
LA VETA PASS   FAIR      43  30  61 MISG      30.54F
SAGUACHE       NOT AVBL
$$

COZ035-036-038>040-271000-
...NORTHERN COLORADO FRONT RANGE...

CITY           SKY/WX    TMP DP  RH WIND       PRES   REMARKS
DENVER INTL AP FAIR      50  33  52 W12       30.28F
DMNS CITY PARK   N/A     49  36  60 SE3G9     30.28F
AURORA         CLEAR     46  31  55 S7        30.30F
FRONT RANGE AP NOT AVBL
ERIE MUNI ARPT FAIR      42  34  75 CALM      30.28F
BOULDER MUN AP FAIR      52  34  50 CALM      30.27F
CENTENNIAL     FAIR      49  31  49 SW5       30.30F
BROOMFIELD     FAIR      54  32  43 CALM      30.30S
FORT COLLINS   FAIR      48  41  76 N6        30.28S
LONGMONT       FAIR      51  34  52 CALM      30.29F
$$

COZ041-046-047-076>085-087-088-271000-
...PIKES PEAK/PALMER DIVIDE AND SOUTHERN FOOTHILLS...

CITY           SKY/WX    TMP DP  RH WIND       PRES   REMARKS
COLO. SPRINGS  FAIR      46  30  53 N8        30.34F
A. F. ACADEMY  FAIR      39  29  66 N8        30.34F
SCHRIEVER AFB  NOT AVBL
ELLICOTT       NOT AVBL
FALCON         NOT AVBL
FORT CARSON    FAIR      47  31  53 NW8       30.30F
LIMON          FAIR      36  27  69 N7        30.28F
MONUMENT HILL  FAIR      45  28  53 SW7       30.37F
TRINIDAD       FAIR      47  35  63 NW10      30.31F
$$

COZ042>045-048>051-090-091-271000-
...NORTHEAST COLORADO...

CITY           SKY/WX    TMP DP  RH WIND       PRES   REMARKS
GREELEY ARPT   FAIR      45  37  76 W3        30.27F
AKRON          FAIR      51  36  56 SW8       30.24F
BURLINGTON     FAIR      48  39  71 W3        30.22F
WRAY           FAIR      45  37  76 W6        30.21F
STERLING       FAIR      43  37  81 CALM      30.22F
HOLYOKE        FAIR      46  39  76 W6        30.20F
FORT MORGAN    NOT AVBL
$$

COZ086-089-092>099-271000-
...SOUTHEAST COLORADO...

CITY           SKY/WX    TMP DP  RH WIND       PRES   REMARKS
PUEBLO         FAIR      47  30  51 W8        30.26F
LA JUNTA       FAIR      50  35  56 SW6       30.23F
LAMAR          FAIR      43  33  68 SW5       30.20F
SPRINGFIELD    NOT AVBL
$$




USA.gov is the U.S. government's official web portal to all federal, state and local government web resources and services.